Location: Augustenthal
(51.7167°N, 10.2833°E)
Time: 22:59:34
(UTC+00:00)

SeaSat 1 - Pass Details

Date: 18 May 2021
Orbit: 745 x 746 km, 108.0° (Epoch: 24 June)

Event Time Altitude Azimuth Distance (km) Brightness Sun altitude
Rises 22:57:59 0° 41° (NE) 3,202 6.4 -18.4°
Reaches altitude 10° 23:00:55 10° 60° (ENE) 2,272 5.3 -18.4°
Maximum altitude 23:04:23 19° 104° (ESE) 1,734 4.2 -18.5°
Enters shadow 23:05:36 17° 123° (ESE) 1,807 4.1 -18.5°
